Regional Weather Roundup
Issued by NWS

Home | Current Version | Previous Version | Text Only | Print | Product List | Glossary Off
Versions: 1 2 3 4 5 6 7 8 9 10 11 12 13 14 15 16 17 18 19 20 21 22 23 24 25 26 27 28 29 30 31 32 33 34 35 36 37 38 39 40 41 42 43 44 45 46 47 48 49 50

000
ASUS43 KDMX 220101
RWRIA

WEATHER ROUNDUP FOR IOWA
NATIONAL WEATHER SERVICE DES MOINES IA
800 PM CDT THU SEP 21 2017

NOTE: "FAIR" INDICATES FEW OR NO CLOUDS BELOW 12,000 FEET WITH NO
SIGNIFICANT WEATHER AND/OR OBSTRUCTIONS TO VISIBILITY.

* - THESE STATIONS ARE NOT NWS STATIONS...THUS NOT UNDER NWS
QUALITY CONTROL.  THEY ALSO DO NOT REPORT WEATHER SUCH
AS PRECIPITATION OR FOG.

IAZ001>003-012>014-020>022-031>034-043>046-220200-
   NORTHWEST IOWA

CITY           SKY/WX    TMP DP  RH WIND       PRES   REMARKS
CARROLL *      CLEAR     82  72  69 S13       29.79R HX  87
CHEROKEE *     CLEAR     80  74  82 S8        29.75R HX  83
DENISON *      CLEAR     82  72  69 S10G18    29.78R HX  87
LE MARS *      CLEAR     82  73  74 SE10G16   29.71S HX  88
ORANGE CITY *  CLEAR     82  75  78 SE7       29.73S HX  89
SHELDON *      CLEAR     79  73  83 SE10      29.73R HX  82
SIOUX CITY     CLEAR     83  73  72 SE10      29.71R HX  89
SPENCER        CLEAR     78  71  79 SE8       29.77R HX  80
STORM LAKE *   CLEAR     81  72  74 S12       29.78R HX  84
$$

IAZ055>058-069>071-079>083-090>094-220200-
   SOUTHWEST IOWA

CITY           SKY/WX    TMP DP  RH WIND       PRES   REMARKS
ATLANTIC *     CLEAR     84  72  65 S10G16    29.79R HX  89
AUDUBON *      CLEAR     82  73  74 S10       29.81R HX  88
CLARINDA *     CLEAR     84  73  70 S8        29.83R HX  91
COUNCIL BLFS * CLEAR     84  75  74 S14       29.77R HX  92
CRESTON *      CLEAR     82  70  65 S13       29.85R HX  86
HARLAN  *      CLEAR     84  73  70 S13G18    29.82R HX  91
LAMONI         CLOUDY    83  70  64 SE7G18    29.86R HX  87
RED OAK *      CLEAR     84  73  70 S10       29.80R HX  91
SHENANDOAH *   CLEAR     84  73  70 S12       29.79R HX  91
$$

IAZ047>049-059>061-072>074-084-220200-
   CENTRAL IOWA

CITY           SKY/WX    TMP DP  RH WIND       PRES   REMARKS
AMES           CLEAR     81  73  76 SE8       29.83R HX  86
ANKENY *       CLEAR     84  70  61 S9G16     29.84R HX  88
BOONE *        CLEAR     81  72  74 SE8       29.82S HX  84
CHARITON *     CLEAR     81  70  69 S12       29.87R HX  84
DES MOINES     PTCLDY    84  70  62 SE15      29.83R HX  88
GRINNELL*      CLEAR     79  70  73 SE9       29.89R HX  82
KNOXVILLE *    CLEAR     81  72  74 SE9       29.85R HX  84
MARSHALLTOWN   CLEAR     81  71  71 SE12      29.86R HX  85
NEWTON *       CLEAR     81  72  74 SE10      29.87R HX  84
PELLA *        CLEAR     82  70  68 SE6       29.87S HX  85
PERRY *          N/A     81  74  79 SE7       29.82R HX  85
$$

IAZ004>006-015-016-023>025-035-036-220200-
   NORTH CENTRAL IOWA

CITY           SKY/WX    TMP DP  RH WIND       PRES   REMARKS
ALGONA *       CLEAR     81  72  74 S10       29.80R HX  84
CLARION *      PTCLDY    81  72  74 S12       29.82S HX  84
ESTHERVILLE    CLEAR     77  72  84 S10       29.77R
FORT DODGE *   CLEAR     83  72  69 S8        29.81R HX  88
MASON CITY     CLEAR     81  69  67 S14       29.85R HX  84
FOREST CITY *    N/A     79  70  73 S9        29.83R HX  81
WEBSTER CITY * CLEAR     81  70  69 SE8       29.80R HX  84
IOWA FALLS *     N/A     81  70  69 SE8       29.86S HX  84
$$

IAZ007>011-017>019-026>030-037>042-050>054-066-220200-
   NORTHEAST IOWA

CITY           SKY/WX    TMP DP  RH WIND       PRES   REMARKS
CEDAR RAPIDS   CLEAR     79  68  69 SE9       29.90S HX  81
CHARLES CITY * CLEAR     81  70  69 S10G16    29.87R HX  84
CLINTON *      PTCLDY   N/A N/A N/A SE7       29.95S
DECORAH *      CLEAR     77  64  65 S8        29.89R
DUBUQUE        CLEAR     74  67  78 S9        29.95S
MONTICELLO *   CLEAR     77  68  73 SE7       29.91F
OELWEIN *      CLEAR     79  70  73 S7        29.91R HX  81
WATERLOO       CLEAR     80  67  64 SE16      29.86R HX  82
$$

IAZ064-065-067-068-078-220200-
   EAST CENTRAL IOWA

CITY           SKY/WX    TMP DP  RH WIND       PRES   REMARKS
DAVENPORT      PTCLDY    77  69  76 S7        29.96S
IOWA CITY      CLEAR     79  68  69 SE9       29.92S HX  81
MUSCATINE *    CLEAR     79  70  73 SE6       29.92S HX  81
QUAD CITIES    PTCLDY    79  70  74 S7        29.93S HX  82
$$

IAZ062-063-075>077-085>089-095>099-220200-
   SOUTHEAST IOWA

CITY           SKY/WX    TMP DP  RH WIND       PRES   REMARKS
BURLINGTON     CLEAR     80  73  79 SE9       29.93S HX  84
FAIRFIELD *    CLEAR     81  72  74 SE8       29.89S HX  84
FORT MADISON * CLEAR     81  73  78 SE8       29.94S HX  85
KEOKUK *       CLEAR     82  72  69 SE8       29.92S HX  87
OSKALOOSA *      N/A     78  71  77 SE8       29.88R HX  81
OTTUMWA        CLEAR     81  72  74 SE10      29.88R HX  85
WASHINGTON *   CLEAR     77  72  83 SE8G14    29.92S
$$

ABBREVIATIONS USED IN REMARKS
   TC - TEMPERATURES IN CELSIUS
  WCI - WIND CHILL INDEX
   HX - HEAT INDEX
  VSB - VISIBILITY
$$





USA.gov is the U.S. government's official web portal to all federal, state and local government web resources and services.